Content
SEND FEEDBACK

Daily
Averages
Monthly
Summary
United States of America

SKYLAND, NORTH CAROLINA


Home > North America > United States > North Carolina
Elevation: 2246 feet     Latitude: 35 30N     Longitude: 082 36W

WEATHER
 
SELECT A DAY
Number of Records: 229,403;   Date Range: 1/1/95 - 10/18/14
 
SHARE

PRINT THIS DATA

[ ← Previous Day ]
WEATHER ALMANAC - MAY 4, 2013
[ Next Day → ]
[ °C ]   °F
Weather ElementAverageHighLow
Temperature50.4 °F55 °F (12:54 am)48 °F (5:54 am)
Dewpoint44.7 °F48.2 °F (10:03 pm)37 °F (5:54 am)
Humidity81.3 %94 % (10:03 pm)66 % (3:54 am)
Barometer30.03 in30.08 in (2:44 am)29.97 in (5:54 pm)
Wind Speed5.1 mph11.5 mph (2:54 am)
Wind Gust19.6 mph (2:54 am)
Weather ElementAverage
Visibility9.2 mi
Wind DirectionENE (62.6 °)

Weather ElementTotal
Precipitation0.64 in
Heating Degree Days13.5 (Base 65)
Growing Degree Days1.5 (Base 50)
Averaged from 31 records on May 4, 2013
WEATHER CONDITIONS BREAKOUT
WIND DIRECTION BREAKOUT
WEATHER BY HOUR - MAY 4, 2013
[ °C ]   °F
Local TimeTemperatureDewpointHumidityBarometerVisibilityWind DirectionWind SpeedGust SpeedPrecipitationEventsConditions
12:54 AM55.0 °F46.0 °F72 %30.06 in10.0 miESE (120°)9.2 mphOvercast
1:54 AM54.0 °F44.1 °F69 %30.05 in10.0 miEast (100°)8.1 mphOvercast
2:44 AM53.6 °F42.8 °F67 %30.08 in10.0 miVariable5.8 mphOvercast
2:54 AM52.0 °F43.0 °F71 %30.05 in10.0 miEast (100°)11.5 mph19.6 mphOvercast
3:16 AM51.8 °F42.8 °F71 %30.07 in10.0 miVariable4.6 mphOvercast
3:54 AM51.1 °F39.9 °F66 %30.04 in10.0 miESE (120°)9.2 mphOvercast
4:54 AM48.9 °F39.0 °F69 %30.05 in10.0 miVariable4.6 mphOvercast
5:54 AM48.0 °F37.0 °F66 %30.06 in10.0 miCalmOvercast
6:54 AM48.0 °F39.9 °F74 %30.06 in10.0 miCalmOvercast
7:54 AM48.0 °F42.1 °F80 %30.07 in10.0 miEast (80°)3.5 mphOvercast
8:23 AM48.2 °F42.8 °F82 %30.08 in10.0 miVariable5.8 mphOvercast
8:54 AM48.9 °F43.0 °F80 %30.06 in10.0 miVariable6.9 mphOvercast
9:54 AM48.9 °F43.0 °F80 %30.06 in10.0 miEast (100°)8.1 mphOvercast
10:54 AM50.0 °F44.1 °F80 %30.05 in10.0 miVariable3.5 mphOvercast
11:54 AM50.0 °F44.1 °F80 %30.06 in10.0 miVariable3.5 mphOvercast
12:54 PM50.0 °F45.0 °F83 %30.04 in10.0 miVariable5.8 mphOvercast
1:54 PM50.0 °F45.0 °F83 %30.03 in10.0 miVariable4.6 mphOvercast
2:54 PM50.0 °F46.0 °F86 %30.01 in10.0 miESE (120°)5.8 mphOvercast
3:54 PM50.0 °F48.0 °F93 %30.00 in9.0 miCalm0.00 inOvercast
4:54 PM50.0 °F46.9 °F89 %30.01 in10.0 miSouth (170°)9.2 mphOvercast
5:45 PM51.8 °F46.4 °F82 %29.99 in10.0 miVariable3.5 mph0.00 inOvercast
5:54 PM51.1 °F46.0 °F83 %29.97 in9.0 miSSE (160°)4.6 mph0.00 inRainLight Rain
6:54 PM51.1 °F48.0 °F89 %29.97 in10.0 miCalm0.01 inRainLight Rain
7:54 PM51.1 °F46.9 °F86 %29.97 in10.0 miESE (120°)8.1 mph0.00 inRainLight Rain
8:54 PM51.1 °F46.9 °F86 %29.98 in6.0 miSSE (150°)4.6 mph0.06 inRainRain
9:54 PM50.0 °F48.0 °F93 %30.01 in4.0 miSW (220°)5.8 mph0.20 inRainRain
10:03 PM50.0 °F48.2 °F94 %30.04 in9.0 miSSW (210°)5.8 mph0.00 inRainLight Rain
10:27 PM50.0 °F48.2 °F94 %30.03 in5.0 miVariable3.5 mph0.08 inRainHeavy Rain
10:54 PM50.0 °F46.9 °F89 %30.00 in8.0 miVariable3.5 mph0.17 inRainRain
11:04 PM50.0 °F48.2 °F94 %30.03 in9.0 miSouth (170°)5.8 mph0.01 inRainLight Rain
11:54 PM50.0 °F46.9 °F89 %29.97 in7.0 miVariable3.5 mph0.11 inRainRain
Hourly data recorded from KAVL, located miles away from Skyland, North Carolina







STORIES FROM OUR PARTNERS